Flag for Japan Weather past 2 weeks in Nagoya, Japan

Now
48 °F

Passing clouds.


Feels Like: 41 °F
Forecast: 33 / 45 °F
Wind: 23 mph from West

Location: Nagoya Airport

Current Time: Dec 21, 2014 at 2:31:15 AM

Latest Report: Dec 21, 2014 at 2:00 AM


Visibility: N/A

Pressure: 29.92 "Hg

Humidity: 66%

Dew point: 37 °F

Location of NagoyaLocation

Historic Weather in Nagoya — Graph

°F

Nagoya temperature yesterday

Maximum temperature yesterday: 52 °F (at 10:00 PM)
Minimum temperature yesterday: 37 °F (at 3:30 AM)
Average temperature yesterday: 43 °F

Past Weeks' High & Low Weather Summary

 TemperatureHumidityPressure
High55 °F (Dec 11, 4:00 PM)100% (Dec 11, 11:00 AM)30.48 "Hg (Dec 11, 11:00 AM)
Low36 °F (Dec 17, 9:00 PM)43% (Dec 10, 4:30 PM)29.53 "Hg (Dec 16, 4:00 PM)
Average44 °F67%30.08 "Hg
* Reported Dec 6 1:00 AM — Dec 21 1:30 AM, Nagoya, Weather by CustomWeather, © 2014

Note: Actual official high and low records may vary slightly from our data, if they occured in-between our weather recording intervals... More about our weather records

Advertising

Nagoya weather history for previous 24 hours

 ConditionsComfort  
Time TempWeatherWind HumidityBarometerVisibility
1:30 AM
Dec 21
48 °FPassing clouds.22 mph66%29.92 "HgN/A
1:00 AM50 °FPassing clouds.18 mph62%29.89 "HgN/A
12:30 AM50 °FPassing clouds.24 mph58%29.92 "HgN/A
12:00 AM50 °FPassing clouds.30 mph67%29.89 "HgN/A
11:30 PM
Dec 20
52 °FPassing clouds.32 mph67%29.89 "HgN/A
11:00 PM52 °FPassing clouds.24 mph72%29.89 "HgN/A
10:30 PM52 °FPassing clouds.24 mph72%29.86 "HgN/A
10:00 PM52 °FPassing clouds.20 mph77%29.86 "HgN/A
9:30 PM50 °FPassing clouds.20 mph82%29.86 "HgN/A
9:00 PM50 °FPassing clouds.17 mph82%29.83 "HgN/A
8:30 PM50 °FPassing clouds.18 mph82%29.83 "HgN/A
8:00 PM50 °FPassing clouds.24 mph82%29.80 "HgN/A
7:30 PM50 °FPartly cloudy.23 mph88%29.77 "HgN/A
7:00 PM48 °FPartly cloudy.7 mph87%29.77 "HgN/A
6:30 PM46 °FPartly cloudy.12 mph93%29.74 "HgN/A
6:00 PM45 °FPartly cloudy.17 mph100%29.74 "HgN/A
5:30 PM46 °FSprinkles. Fog.17 mph93%29.74 "Hg3 mi
5:00 PM45 °FSprinkles. Fog.22 mph93%29.71 "Hg2 mi
4:30 PM43 °FSprinkles. Fog.20 mph100%29.74 "Hg3 mi
4:00 PM43 °FSprinkles. Fog.16 mph93%29.77 "Hg3 mi
3:30 PM43 °FSprinkles. Fog.12 mph93%29.77 "Hg2 mi
3:00 PM43 °FRain showers. Fog.9 mph87%29.80 "Hg3 mi
2:30 PM43 °FSprinkles. Fog.13 mph87%29.83 "Hg3 mi
2:00 PM43 °FRain showers. Fog.16 mph87%29.86 "Hg3 mi
1:30 PM43 °FSprinkles. Partly sunny.15 mph81%29.86 "Hg5 mi
1:00 PM43 °FSprinkles. Partly sunny.12 mph81%29.89 "Hg5 mi
12:30 PM43 °FSprinkles. Partly sunny.9 mph81%29.92 "Hg5 mi
12:00 PM43 °FSprinkles. Partly sunny.8 mph81%29.98 "HgN/A
11:30 AM43 °FSprinkles. Partly sunny.5 mph76%30.01 "HgN/A
11:00 AM43 °FPartly sunny.7 mph81%30.07 "HgN/A
10:00 AM41 °FPartly sunny.6 mph81%30.12 "HgN/A
9:30 AM39 °FLight rain. Partly sunny.6 mph81%30.15 "HgN/A
9:00 AM41 °FLight rain. Broken clouds.9 mph76%30.18 "HgN/A
8:30 AM39 °FPartly sunny.9 mph81%30.18 "HgN/A
8:00 AM41 °FBroken clouds.12 mph76%30.21 "HgN/A
7:30 AM41 °FBroken clouds.12 mph76%30.21 "HgN/A
7:00 AM39 °FPartly sunny.7 mph81%30.21 "HgN/A
6:30 AM39 °FPartly cloudy.8 mph81%30.24 "HgN/A
6:00 AM39 °FPartly cloudy.7 mph81%30.24 "HgN/A
5:30 AM39 °FPassing clouds.7 mph81%30.27 "HgN/A
5:00 AM37 °FPassing clouds.8 mph87%30.27 "HgN/A
4:30 AM39 °FPassing clouds.10 mph81%30.27 "HgN/A
4:00 AM39 °FPassing clouds.9 mph81%30.30 "HgN/A
3:30 AM37 °FPassing clouds.7 mph81%30.30 "HgN/A
3:00 AM39 °FPassing clouds.7 mph75%30.30 "HgN/A
2:30 AM39 °FPassing clouds.5 mph87%30.33 "HgN/A
2:00 AM39 °FPassing clouds.5 mph87%30.36 "HgN/A
Weather by CustomWeather, © 2014

See weather overviewHow to use our weather pages